Back to catalog

STARLINK-37519

AliveCommunicationsSSO
NORAD 69298·PAYLOAD·🇺🇸 United States

Launched May 30, 2026 from Vandenberg Space Force Base

Loading…

Next Passes (next 24 hours)

TLE

FreshSource: CelesTrak SupGP

Epoch: Sep 14, 2026, 22:40 UTC

1 69298C 26119C   26257.94493056  .00059030  00000+0  18328-2 0  2572
2 69298  97.2828 282.7165 0001139  91.5382  98.9148 15.33403797    17

Track STARLINK-37519 in real time with AllMySat

Download on the App Store